OKEAN-0
1 25860U 99039A 12270.93241284 .00000575 00000-0 94397-4 0 07616
2 25860 097.9494 231.5686 0000734 035.4758 324.6500 14.74309213709563
NOAA-16
1 26536U 00055A 12270.73810919 .00000255 00000-0 16203-3 0 09089
2 26536 099.0844 314.3784 0010842 154.9028 205.2656 14.12784969619375
NOAA-17
1 27453U 02032A 12270.66263448 .00000184 00000-0 97159-4 0 08536
2 27453 098.3313 292.5472 0011042 215.9107 144.1330 14.24485371533202
NOAA-18
1 28654U 05018A 12270.91545063 .00000052 00000-0 53909-4 0 03344
2 28654 099.0580 229.9118 0013526 227.6954 132.3056 14.11703727378913
NOAA-19
1 33591U 09005A 12270.87538238 .00000236 00000-0 15447-3 0 05239
2 33591 098.8696 209.4360 0014936 093.0294 267.2561 14.11390740187356
HUBBLE
1 20580U 90037B 12271.20726304 .00002390 00000-0 16187-3 0 789
2 20580 028.4692 195.7700 0003189 071.1538 288.9500 15.02819243 30092
ISS
1 25544U 98067A 12271.74935508 .00020637 00000-0 36314-3 0 3750
2 25544 051.6482 331.6519 0017849 107.2590 351.4520 15.50264162793954
CO-58
1 28895U 05043F 12271.62960078 .00000875 00000-0 18814-3 0 2870
2 28895 097.8982 133.3246 0017333 185.8302 174.2703 14.60757213368617
FALCON
1 30776U 07006E 12270.75802840 .00005258 00000-0 33473-3 0 4451
2 30776 035.4330 016.1232 0001463 149.9442 210.1360 15.08276558305597
MAST
1 31126U 07012K 12270.98766871 .00000574 00000-0 13770-3 0 05787
2 31126 097.8761 276.1473 0093935 152.7735 207.8442 14.54261296289064
CAPE1
1 31130U 07012P 12270.55683236 .00000600 00000-0 14590-3 0 5778
2 31130 097.8861 272.0750 0101355 167.9567 192.4096 14.53073442288493
COMPASS
1 32787U 08021E 12271.74733992 .00003145 00000-0 37975-3 0 4212
2 32787 097.7890 330.7754 0016235 085.0346 275.2701 14.84379070239024
AAUSAT2
1 32788U 08021F 12270.68282206 .00002979 00000-0 35708-3 0 04128
2 32788 097.7897 330.1754 0015713 088.1604 272.1438 14.84724243238890
DO-64
1 32789U 08021G 12270.75479471 .00004727 00000-0 53955-3 0 04294
2 32789 097.8032 332.6763 0015531 084.7377 275.5602 14.86473727238965
CO-66
1 32791U 08021J 12270.76788497 .00001632 00000-0 20330-3 0 04102
2 32791 097.7880 329.4734 0017012 089.6418 270.6697 14.83719214238800
RS-30
1 32953U 08025A 12271.83169720 .00000010 00000-0 00000 0 0 1796
2 32953 082.5005 231.2990 0020381 083.0986 277.2416 12.43027797197310
PHARMSAT
1 35002U 09028B 12226.86484473 .07728342 73476-5 57159-3 0 789
2 35002 040.4341 050.6671 0012079 300.9773 059.0492 16.39309245183554
METEOR-M
1 35865U 09049A 12271.74847681 -.00000011 00000-0 14406-4 0 8178
2 35865 098.6426 324.0905 0003141 104.4310 255.7213 14.21869747157174
RS-38
1 35869U 09049E 12271.68382926 .00000020 00000-0 28509-4 0 8023
2 35869 098.6383 324.0054 0005264 108.1791 251.9975 14.22088279157185
JUGNU
1 37839U 11058B 12271.84697633 .00000620 00000-0 19019-3 0 2347
2 37839 019.9591 096.3049 0020463 274.8662 084.9304 14.12084536 49776
SRMSAT
1 37841U 11058D 12271.68754735 .00000264 00000-0 00000 0 0 2372
2 37841 019.9697 104.1580 0012708 234.7161 125.2117 14.10163947 49678
RAX-2
1 37853U 11061D 12271.85085828 .00005972 00000-0 47128-3 0 2971
2 37853 101.7057 358.8024 0243847 058.0063 304.4585 14.80886267 49584
AUBIESAT
1 37854U 11061E 12270.89872394 .00005796 00000-0 45026-3 0 03090
2 37854 101.7076 357.8032 0244701 060.1861 302.3428 14.81328491049443
HRBE
1 37855U 11061F 12270.85605828 .00005620 00000-0 43854-3 0 02972
2 37855 101.7090 357.6618 0245095 060.1561 302.3759 14.81141503049435
RS-39
1 38051U 11062C 12271.87262909 .00011944 00000-0 46983-3 0 7409
2 38051 051.6390 029.9366 0013581 046.2558 047.6193 15.25977376 37648
E-STAR
1 38079U 12006C 12271.80504012 .00073183 00000-0 17763-2 0 5342
2 38079 069.4754 080.0463 0710948 117.9298 249.6285 14.21997171 32138
GOLIAT
1 38085U 12006J 12271.66089675 .00069176 00000-0 16700-2 0 5028
2 38085 069.4795 081.0245 0717120 118.5139 249.0888 14.20802849 32093
HORYU-2
1 38340U 12025D 12271.87588310 .00001976 00000-0 33608-3 0 1685
2 38340 098.1823 211.8810 0013314 009.7931 350.3597 14.70203550 19563
RS-40
1 38736U 12041D 12270.67235512 .00000010 00000-0 00000-0 0 00664
2 38736 082.4798 319.4339 0018758 179.0918 181.0198 12.42646652007512
PROITERES
1 38756U 12047B 12271.82554833 .00000575 00000-0 95852-4 0 704
2 38756 098.2838 337.6969 0011773 217.9743 142.0625 14.73883638 2748
OBJECT D
1 38761U 0 12268.59018760 .00002110 00000-0 20545-3 0 00185
2 38761 064.6727 007.9061 0219362 286.4122 205.1345 14.79120532001566
OBJECT E
1 38762U 0 12264.52772095 .00001246 00000-0 12859-3 0 00147
2 38762 064.6719 020.3496 0219119 287.3135 173.9581 14.79110077000963
OBJECT F
1 38763U 0 12268.58833758 .00001955 00000-0 19150-3 0 00162
2 38763 064.6732 007.9137 0219633 286.4343 195.0416 14.79113104001400
OBJECT G
1 38764U 0 12268.59053544 .00001915 00000-0 18839-3 0 00193
2 38764 064.6735 007.9112 0219414 286.3324 204.3843 14.79048217001569
OBJECT H
1 38765U 0 12268.79450975 .00002431 00000-0 23316-3 0 00173
2 38765 064.6726 007.2677 0219363 286.2238 218.6495 14.79262528001592
OBJECT J
1 38766U 0 12268.58823291 .00002514 00000-0 24159-3 0 00174
2 38766 064.6734 007.9103 0219070 286.1068 195.5813 14.79138683001566
